Wind_Speed
30 29 32 33 32 33 35 38 43 46 49 53 49 47 39 43 49 53 59 64 66 65 60 59 51 49 51 50 48 45 46 48 49 47 55 65 76 82 90 89 88 86 85 80
29 30 31 33 33 33 35 39 44 48 52 56 49 38 38 44 49 56 61 65 66 61 54 46 45 46 45 42 41 41 43 45 43 44 46 58 69 73 82 88 88 85 85 82
29 29 32 32 32 33 35 41 45 50 54 50 40 36 38 43 51 57 63 63 65 55 42 38 41 41 38 36 36 35 36 37 40 38 44 52 60 70 74 82 85 84 83 77
25 28 31 31 32 34 36 41 45 50 50 44 39 42 42 44 51 57 59 63 54 40 34 35 36 36 33 33 33 32 32 33 31 31 38 42 57 62 70 75 83 85 81 74
25 28 30 30 31 32 37 42 46 48 45 42 40 43 43 46 52 55 57 45 38 34 33 33 33 33 33 33 32 29 26 21 19 15 28 33 42 55 61 70 75 77 78 71
27 28 28 28 30 32 37 40 45 44 44 43 43 41 39 47 49 48 42 39 35 33 32 33 34 33 32 32 29 25 21 17 22 20 19 26 31 42 53 64 69 72 76 70
27 26 26 27 28 31 36 39 44 45 46 47 47 37 38 42 40 38 38 35 34 31 30 33 29 27 26 25 25 22 18 16 20 23 24 27 25 33 43 54 61 67 66 66
26 25 24 24 27 31 34 39 41 43 45 48 39 32 35 33 32 36 33 33 32 32 33 30 25 22 22 21 20 19 16 14 16 17 19 27 26 31 34 44 52 56 56 56
25 24 20 22 25 29 33 38 40 42 44 42 33 34 28 24 32 33 32 33 33 33 28 28 26 24 20 20 17 14 12 9 9 11 14 24 27 29 33 39 42 45 48 47
25 22 17 21 23 26 31 35 38 41 42 36 32 28 27 22 29 33 32 30 29 28 27 27 24 24 22 22 23 15 11 6 5 5 11 18 22 31 35 36 38 38 38 38
24 22 15 19 21 25 29 32 36 38 30 31 32 26 22 19 26 27 31 28 26 26 22 21 22 23 23 24 25 23 15 8 4 6 16 24 31 34 33 32 33 35 36 33
23 19 14 16 19 23 27 31 34 29 26 27 30 22 16 18 21 23 25 26 25 26 24 21 21 23 24 24 24 24 21 18 14 14 20 26 32 33 33 34 35 37 36 33
22 15 12 15 18 21 24 29 28 22 25 24 26 22 15 18 15 20 23 25 27 28 26 23 22 23 23 24 25 27 26 23 20 21 22 24 26 29 30 31 32 32 31 32
20 15 11 15 16 19 21 24 21 22 24 22 20 16 12 13 12 17 23 25 24 30 23 21 20 24 21 22 24 27 29 28 25 23 22 22 23 23 24 24 24 25 26 30
18 12 9 13 14 15 21 20 15 18 20 20 19 14 12 9 13 18 20 21 21 25 23 20 22 21 22 21 23 25 25 27 27 26 22 19 20 20 19 19 19 20 21 24
19 10 7 12 11 13 17 14 11 14 17 19 16 15 15 13 14 15 18 20 23 25 29 26 25 29 25 21 18 21 22 24 24 24 23 21 18 15 13 12 13 13 12 15
15 12 7 9 6 9 13 9 8 11 16 17 17 16 18 25 29 28 29 30 35 37 38 41 42 42 39 37 25 28 28 26 26 24 23 22 20 17 15 16 16 16 12 11
15 15 9 8 2 4 9 7 6 11 15 23 28 29 27 28 29 29 29 31 32 34 37 39 41 43 44 44 37 35 33 30 26 25 23 24 22 16 16 17 14 11 13 9
17 17 11 8 4 1 5 5 7 10 18 18 19 21 23 24 25 26 29 32 35 36 36 36 35 35 35 37 38 39 33 31 25 22 20 21 22 24 22 17 14 11 13 15
19 18 13 10 8 3 1 3 7 10 14 12 12 14 16 17 20 22 26 30 33 36 37 37 37 35 33 31 30 31 32 32 32 33 33 32 29 30 26 23 23 21 20 17
19 19 16 12 11 9 4 5 9 14 15 11 9 8 8 10 13 17 21 25 29 32 35 36 35 34 32 32 30 28 26 25 24 23 22 22 22 20 19 17 17 16 14 12
17 21 19 15 14 13 8 8 9 13 19 15 10 7 4 3 7 12 17 21 25 28 31 33 33 32 30 27 26 26 26 24 22 20 18 17 15 15 15 14 13 12 10 9
17 25 22 19 17 17 15 13 13 14 20 17 14 11 8 4 3 6 11 16 20 23 26 28 29 29 27 25 22 20 20 21 18 17 16 15 13 12 10 8 7 6 5 5
18 26 24 23 21 20 19 17 15 15 19 20 18 15 12 8 8 7 8 12 15 19 22 24 25 26 25 22 19 17 16 17 16 15 14 12 10 8 7 6 7 7 8 10
20 24 30 25 23 24 22 22 19 19 18 22 21 19 16 13 12 10 10 11 13 16 19 20 22 23 24 24 21 18 16 14 13 13 12 12 12 11 11 11 12 13 14 16
19 23 28 28 33 26 23 23 25 24 22 21 21 22 21 18 16 14 14 15 16 17 20 20 20 22 22 21 21 19 18 16 14 15 16 16 16 16 16 16 17 18 20 22
Wind_Direction
278 281 285 288 292 297 300 303 307 309 311 310 306 303 290 301 304 305 308 309 310 311 305 300 296 295 293 290 288 282 274 269 262 256 241 231 228 224 220 221 221 221 225 225
274 281 285 289 293 299 302 305 306 312 315 313 310 304 299 304 302 306 310 311 312 315 306 300 297 298 295 292 288 283 277 270 264 253 246 234 227 222 222 221 221 222 222 222
274 280 284 290 295 299 305 306 311 317 318 315 311 300 301 304 307 311 312 316 317 317 309 303 302 299 298 299 293 290 281 273 273 261 240 233 228 223 221 221 221 223 222 223
274 282 287 293 297 302 308 309 316 320 321 319 315 309 307 308 310 313 320 320 322 321 315 312 305 305 307 304 299 294 287 280 276 256 234 231 225 226 221 220 220 220 218 219
276 283 288 294 298 304 308 313 320 322 322 319 318 313 312 313 316 324 327 337 336 327 323 315 313 315 312 306 301 300 295 276 267 263 235 229 224 224 223 218 219 219 220 220
277 282 288 293 300 307 310 317 321 320 319 322 328 323 323 322 328 333 336 340 338 332 330 330 327 327 323 318 312 302 294 268 263 251 238 223 221 221 220 217 214 215 217 216
278 282 288 294 304 309 314 319 323 322 324 329 330 328 328 330 336 341 343 346 342 341 345 345 342 335 331 321 316 309 298 277 263 251 234 208 207 213 215 213 208 210 215 215
279 279 289 298 305 310 317 322 326 324 325 327 332 337 336 338 353 352 353 348 349 353 357 2 355 346 345 335 330 321 308 286 271 251 230 215 216 202 206 209 202 207 211 216
282 281 290 298 307 314 320 326 326 324 326 332 344 338 346 1 4 357 355 356 5 6 16 14 19 13 4 1 2 343 318 303 275 262 225 206 216 200 188 194 192 202 207 211
283 284 291 300 310 316 323 327 327 328 331 336 345 340 349 2 9 8 6 8 11 13 17 10 11 27 31 22 29 31 24 8 329 272 218 209 204 171 169 177 187 196 199 202
281 284 292 301 312 318 328 326 327 329 334 336 337 344 352 356 12 18 21 15 10 12 14 13 28 31 43 41 33 37 56 63 13 161 167 158 154 150 154 170 181 188 192 194
279 280 290 304 315 323 330 328 327 333 336 338 333 343 357 357 7 20 21 19 16 17 15 24 36 42 44 52 54 50 49 68 96 124 139 144 141 143 155 167 178 186 190 196
275 269 288 306 315 330 331 329 332 334 336 339 334 339 2 0 11 16 20 18 21 18 23 26 40 46 52 58 66 70 69 73 83 99 112 124 137 146 158 170 177 185 193 201
270 271 290 304 319 333 333 334 335 340 341 341 342 351 3 18 17 19 19 12 15 18 20 32 46 43 55 66 67 74 77 77 81 90 101 114 126 138 150 160 171 183 194 204
267 251 282 297 324 336 336 339 347 349 346 354 357 7 12 24 8 6 10 22 23 21 31 31 42 47 62 59 71 74 76 81 84 85 89 103 118 128 139 151 164 175 186 194
262 229 263 288 327 340 339 347 2 1 2 9 21 26 35 18 2 18 25 30 46 53 54 52 45 44 60 59 81 59 86 85 85 91 97 100 101 111 123 142 160 164 171 194
256 226 236 267 314 337 345 0 22 34 28 31 48 51 63 68 72 72 67 65 67 66 66 63 61 58 56 57 71 90 89 89 80 84 92 95 96 108 117 124 129 133 138 152
232 221 223 245 253 336 352 24 61 74 62 81 84 77 72 69 68 65 61 58 56 54 55 55 55 58 57 57 62 72 81 79 78 77 82 78 86 87 100 116 127 130 121 128
237 219 216 229 203 280 11 43 99 104 103 95 83 81 74 67 65 62 58 55 53 51 50 50 51 54 58 60 60 63 73 80 80 83 92 99 95 105 112 122 135 121 119 134
242 210 211 217 199 199 8 83 134 136 138 119 105 93 78 67 61 53 52 52 50 49 48 46 46 46 50 54 60 68 70 69 71 73 74 76 81 83 86 91 95 101 103 111
231 203 209 210 201 200 192 150 159 153 161 148 138 122 89 67 55 47 44 45 45 44 43 44 44 43 44 48 53 57 59 64 68 71 78 84 89 91 91 90 86 83 83 82
232 207 217 210 206 202 205 179 178 169 175 174 177 171 160 73 44 38 35 36 37 37 38 38 39 40 43 47 53 56 57 58 62 69 73 71 71 74 78 78 78 78 76 72
231 215 221 215 212 208 211 207 191 190 187 193 197 201 210 242 329 14 20 23 27 28 29 30 32 35 35 35 37 38 39 41 44 49 50 55 62 64 61 54 47 38 25 6
236 224 213 220 220 214 207 213 207 205 206 209 216 218 224 236 256 289 330 358 9 12 15 16 18 21 25 28 27 26 26 28 29 30 31 28 26 20 14 6 357 348 336 323
249 232 217 216 228 221 215 217 221 221 219 224 227 232 242 244 258 276 298 321 336 348 352 358 0 5 9 11 12 11 11 14 18 18 12 4 358 349 341 335 328 323 318 314
262 242 232 212 232 226 223 222 225 229 232 233 236 242 248 253 263 277 289 302 311 322 324 333 343 344 349 353 356 354 351 347 351 354 355 353 348 341 336 329 322 316 315 315
Height
5690 5690 5687 5683 5682 5679 5675 5670 5665 5659 5653 5645 5639 5633 5628 5622 5614 5606 5597 5585 5571 5558 5545 5534 5525 5518 5511 5503 5498 5494 5490 5484 5482 5483 5490 5497 5507 5523 5537 5553 5566 5581 5597 5611
5685 5683 5680 5677 5675 5672 5669 5663 5658 5652 5644 5634 5627 5623 5618 5612 5603 5594 5581 5569 5554 5542 5527 5517 5512 5505 5499 5492 5485 5479 5474 5470 5468 5468 5473 5480 5488 5504 5517 5533 5550 5566 5578 5593
5676 5676 5673 5671 5668 5666 5661 5655 5649 5642 5634 5625 5618 5615 5611 5603 5591 5580 5566 5552 5537 5526 5516 5508 5501 5494 5488 5480 5474 5468 5462 5459 5455 5455 5459 5465 5474 5486 5500 5515 5533 5542 5565 5586
5670 5669 5666 5664 5662 5658 5654 5648 5641 5633 5624 5617 5611 5605 5600 5593 5581 5568 5554 5539 5524 5513 5506 5500 5493 5485 5478 5470 5464 5458 5453 5449 5444 5442 5447 5454 5463 5473 5485 5500 5515 5534 5556 5571
5665 5662 5660 5658 5655 5652 5648 5641 5634 5625 5617 5612 5606 5596 5589 5580 5569 5555 5542 5529 5518 5508 5501 5493 5485 5477 5469 5462 5455 5450 5445 5442 5441 5439 5442 5447 5454 5464 5475 5489 5506 5530 5550 5560
5657 5655 5654 5652 5649 5646 5641 5635 5628 5620 5612 5606 5597 5587 5581 5569 5559 5548 5535 5525 5514 5505 5496 5487 5478 5470 5461 5453 5447 5443 5440 5437 5438 5439 5440 5443 5449 5457 5467 5481 5499 5519 5532 5548
5650 5649 5647 5646 5644 5640 5635 5628 5621 5613 5604 5597 5588 5580 5574 5564 5554 5543 5532 5521 5511 5502 5493 5483 5474 5466 5458 5449 5442 5437 5435 5433 5434 5435 5437 5441 5446 5452 5462 5476 5492 5510 5526 5542
5643 5644 5642 5641 5638 5635 5629 5623 5615 5606 5599 5592 5584 5577 5570 5561 5551 5539 5528 5519 5509 5501 5492 5481 5472 5464 5456 5448 5441 5435 5431 5429 5428 5430 5433 5438 5444 5450 5460 5474 5491 5508 5525 5541
5637 5638 5637 5636 5633 5630 5624 5617 5611 5602 5595 5584 5579 5572 5566 5557 5548 5538 5528 5518 5511 5502 5492 5482 5473 5464 5457 5449 5442 5435 5430 5428 5426 5427 5431 5436 5443 5449 5460 5475 5492 5508 5524 5538
5632 5632 5632 5630 5628 5625 5619 5613 5606 5597 5588 5579 5575 5570 5562 5556 5548 5538 5528 5520 5512 5503 5494 5485 5476 5467 5459 5452 5445 5439 5434 5430 5428 5429 5432 5437 5443 5451 5462 5478 5494 5509 5523 5537
5626 5626 5629 5626 5623 5620 5615 5609 5602 5595 5588 5579 5572 5569 5561 5557 5549 5540 5530 5522 5514 5507 5498 5488 5479 5471 5462 5456 5450 5445 5441 5438 5435 5435 5437 5441 5449 5457 5469 5485 5499 5512 5524 5536
5620 5621 5622 5622 5619 5616 5611 5605 5599 5591 5586 5579 5572 5569 5562 5557 5550 5542 5533 5525 5517 5510 5501 5492 5483 5475 5469 5462 5457 5453 5449 5446 5445 5445 5446 5451 5457 5467 5479 5491 5502 5514 5524 5533
5615 5616 5617 5617 5617 5612 5608 5602 5595 5589 5583 5578 5572 5569 5562 5558 5551 5544 5537 5529 5522 5514 5505 5496 5488 5481 5475 5470 5465 5461 5459 5457 5457 5457 5459 5463 5469 5477 5485 5495 5504 5513 5522 5531
5610 5611 5612 5612 5611 5608 5605 5600 5593 5587 5581 5577 5573 5569 5564 5559 5553 5547 5540 5533 5525 5518 5509 5500 5494 5488 5482 5477 5473 5469 5468 5467 5468 5469 5471 5475 5480 5486 5493 5501 5508 5516 5523 5530
5606 5607 5608 5607 5607 5605 5602 5597 5591 5586 5582 5577 5573 5568 5564 5560 5555 5550 5544 5537 5530 5522 5514 5507 5501 5494 5490 5486 5482 5479 5477 5477 5477 5478 5481 5484 5488 5493 5498 5504 5511 5517 5523 5528
5601 5603 5605 5604 5604 5602 5600 5595 5591 5587 5583 5578 5573 5570 5566 5562 5557 5553 5548 5541 5535 5528 5521 5514 5508 5502 5496 5492 5489 5488 5486 5486 5487 5488 5490 5493 5497 5501 5505 5510 5514 5519 5523 5528
5597 5599 5601 5602 5601 5600 5599 5595 5591 5589 5585 5580 5576 5573 5569 5565 5561 5557 5553 5548 5541 5536 5530 5524 5517 5510 5504 5500 5495 5493 5494 5494 5495 5496 5498 5501 5504 5507 5510 5513 5518 5522 5525 5528
5592 5595 5597 5599 5599 5599 5597 5594 5591 5590 5587 5584 5581 5577 5574 5571 5567 5563 5559 5554 5548 5543 5536 5531 5525 5520 5516 5512 5508 5505 5503 5503 5504 5505 5506 5508 5510 5512 5515 5519 5523 5526 5529 5532
5588 5590 5593 5595 5596 5597 5596 5593 5591 5591 5590 5587 5584 5582 5579 5576 5572 5569 5565 5560 5555 5550 5544 5539 5535 5531 5528 5525 5521 5518 5515 5515 5514 5514 5515 5516 5517 5519 5522 5524 5527 5529 5532 5535
5584 5586 5590 5591 5592 5594 5594 5592 5591 5591 5590 5589 5587 5585 5582 5580 5577 5574 5570 5565 5561 5556 5552 5547 5543 5539 5536 5533 5530 5529 5527 5525 5524 5523 5524 5525 5525 5526 5528 5531 5534 5535 5538 5540
5579 5582 5585 5587 5588 5591 5591 5590 5590 5590 5593 5589 5588 5586 5584 5582 5581 5578 5574 5570 5566 5562 5558 5554 5550 5546 5542 5539 5537 5536 5534 5534 5533 5533 5533 5533 5534 5535 5536 5537 5539 5540 5542 5543
5574 5577 5581 5583 5585 5588 5589 5589 5589 5589 5588 5587 5587 5587 5585 5584 5582 5580 5577 5573 5570 5567 5563 5560 5556 5553 5550 5548 5546 5544 5543 5543 5542 5541 5541 5540 5541 5541 5541 5541 5542 5542 5543 5544
5571 5572 5576 5579 5580 5582 5584 5585 5585 5586 5586 5585 5585 5585 5584 5584 5583 5581 5579 5576 5573 5571 5568 5566 5563 5560 5556 5554 5552 5550 5549 5547 5546 5546 5545 5545 5545 5545 5545 5544 5544 5545 5545 5545
5564 5566 5570 5573 5575 5576 5579 5581 5582 5583 5584 5583 5583 5583 5583 5582 5581 5581 5579 5577 5575 5573 5571 5569 5566 5564 5562 5559 5556 5554 5552 5550 5549 5548 5548 5547 5547 5546 5546 5545 5545 5544 5544 5545
5557 5559 5563 5568 5570 5571 5573 5576 5578 5579 5579 5580 5580 5581 5581 5580 5580 5579 5579 5577 5576 5574 5572 5570 5568 5566 5564 5562 5560 5557 5555 5553 5551 5550 5549 5548 5547 5546 5546 5545 5545 5544 5543 5542
5550 5553 5556 5563 5560 5565 5568 5570 5572 5574 5575 5576 5577 5577 5577 5578 5578 5578 5577 5576 5575 5574 5572 5570 5569 5566 5564 5562 5560 5558 5557 5555 5553 5552 5550 5548 5547 5545 5544 5543 5542 5541 5539 5538